Time,TemperatureF,DewpointF,PressureIn,WindDirection,WindDirectionDegrees,WindSpeedMPH,WindSpeedGustMPH,Humidity,HourlyPrecipIn,Conditions,Clouds,dailyrainin,SoftwareType,DateUTC
2013-09-12 00:00:00,69.2,63.8,30.01,NW,323,1.0,8.0,83,0.00,,,0.00,WeatherTracker,2013-09-12 05:00:00,
2013-09-12 00:05:00,69.3,63.6,30.01,NW,319,3.0,6.0,82,0.00,,,0.00,WeatherTracker,2013-09-12 05:05:00,
2013-09-12 00:10:00,69.4,63.7,30.01,NW,319,1.0,8.0,82,0.00,,,0.00,WeatherTracker,2013-09-12 05:10:00,
2013-09-12 00:15:00,69.4,63.7,30.01,NW,318,4.0,8.0,82,0.00,,,0.00,WeatherTracker,2013-09-12 05:15:00,
2013-09-12 00:25:00,69.5,63.4,30.01,NW,325,2.0,6.0,81,0.00,,,0.00,WeatherTracker,2013-09-12 05:25:00,
2013-09-12 00:30:00,69.4,63.3,30.01,NW,319,1.0,4.0,81,0.00,,,0.00,WeatherTracker,2013-09-12 05:30:00,
2013-09-12 00:35:00,69.4,63.3,30.01,NW,316,1.0,5.0,81,0.00,,,0.00,WeatherTracker,2013-09-12 05:35:00,
2013-09-12 00:40:00,69.3,63.2,30.01,NW,321,0.0,5.0,81,0.00,,,0.00,WeatherTracker,2013-09-12 05:40:00,
2013-09-12 00:50:00,69.1,63.0,30.01,NNW,328,0.0,3.0,81,0.00,,,0.00,WeatherTracker,2013-09-12 05:50:00,
2013-09-12 00:55:00,68.9,63.2,30.01,NNW,328,0.0,3.0,82,0.00,,,0.00,WeatherTracker,2013-09-12 05:55:00,
2013-09-12 01:00:00,68.6,62.9,30.01,NNW,328,0.0,0.0,82,0.00,,,0.00,WeatherTracker,2013-09-12 06:00:00,
2013-09-12 01:05:00,68.4,62.7,30.01,NNW,328,0.0,1.0,82,0.00,,,0.00,WeatherTracker,2013-09-12 06:05:00,
2013-09-12 01:15:00,67.9,62.5,30.00,NNW,328,0.0,1.0,83,0.00,,,0.00,WeatherTracker,2013-09-12 06:15:00,
2013-09-12 01:20:00,67.6,62.2,30.00,NNW,328,0.0,1.0,83,0.00,,,0.00,WeatherTracker,2013-09-12 06:20:00,
2013-09-12 01:30:00,67.1,62.1,30.00,NNW,328,0.0,1.0,84,0.00,,,0.00,WeatherTracker,2013-09-12 06:30:00,
2013-09-12 01:35:00,66.8,61.8,30.00,NNW,328,0.0,1.0,84,0.00,,,0.00,WeatherTracker,2013-09-12 06:35:00,
2013-09-12 01:40:00,66.6,61.9,30.00,NNW,328,0.0,0.0,85,0.00,,,0.00,WeatherTracker,2013-09-12 06:40:00,
2013-09-12 01:50:00,66.0,61.4,30.00,NNW,328,0.0,0.0,85,0.00,,,0.00,WeatherTracker,2013-09-12 06:50:00,
2013-09-12 01:55:00,65.8,61.5,30.00,NNW,328,0.0,0.0,86,0.00,,,0.00,WeatherTracker,2013-09-12 06:55:00,
2013-09-12 02:00:00,65.5,61.2,30.00,NNW,328,0.0,0.0,86,0.00,,,0.00,WeatherTracker,2013-09-12 07:00:00,
2013-09-12 02:10:00,65.1,61.1,30.00,NNW,328,0.0,0.0,87,0.00,,,0.00,WeatherTracker,2013-09-12 07:10:00,
2013-09-12 02:15:00,64.9,60.9,30.00,NNW,328,0.0,0.0,87,0.00,,,0.00,WeatherTracker,2013-09-12 07:15:00,
2013-09-12 02:20:00,64.7,60.7,30.00,NNW,328,0.0,1.0,87,0.00,,,0.00,WeatherTracker,2013-09-12 07:20:00,
2013-09-12 02:30:00,64.3,60.3,30.00,NNW,328,0.0,0.0,87,0.00,,,0.00,WeatherTracker,2013-09-12 07:30:00,
2013-09-12 02:35:00,64.1,60.1,30.00,NNW,328,0.0,0.0,87,0.00,,,0.00,WeatherTracker,2013-09-12 07:35:00,
2013-09-12 02:45:00,63.8,60.2,30.00,NNW,328,0.0,0.0,88,0.00,,,0.00,WeatherTracker,2013-09-12 07:45:00,
2013-09-12 02:50:00,63.7,60.1,30.00,NNW,328,0.0,0.0,88,0.00,,,0.00,WeatherTracker,2013-09-12 07:50:00,
2013-09-12 02:55:00,63.5,59.9,30.00,NNW,328,0.0,0.0,88,0.00,,,0.00,WeatherTracker,2013-09-12 07:55:00,
2013-09-12 03:00:00,63.4,59.8,30.00,NNW,328,0.0,0.0,88,0.00,,,0.00,WeatherTracker,2013-09-12 08:00:00,
2013-09-12 03:05:00,63.2,59.6,30.00,NNW,328,0.0,0.0,88,0.00,,,0.00,WeatherTracker,2013-09-12 08:05:00,
2013-09-12 03:15:00,63.0,59.7,30.00,NNW,328,0.0,0.0,89,0.00,,,0.00,WeatherTracker,2013-09-12 08:15:00,
2013-09-12 03:20:00,62.9,59.6,30.00,NNW,328,0.0,0.0,89,0.00,,,0.00,WeatherTracker,2013-09-12 08:20:00,
2013-09-12 03:25:00,62.8,59.5,30.00,NNW,328,0.0,0.0,89,0.00,,,0.00,WeatherTracker,2013-09-12 08:25:00,
2013-09-12 03:30:00,62.7,59.4,30.00,NNW,328,0.0,0.0,89,0.00,,,0.00,WeatherTracker,2013-09-12 08:30:00,
2013-09-12 03:35:00,62.6,59.3,30.00,NNW,328,0.0,0.0,89,0.00,,,0.00,WeatherTracker,2013-09-12 08:35:00,
2013-09-12 03:40:00,62.5,59.2,30.00,NNW,328,0.0,0.0,89,0.00,,,0.00,WeatherTracker,2013-09-12 08:40:00,
2013-09-12 03:50:00,62.4,59.1,30.00,NNW,328,0.0,0.0,89,0.00,,,0.00,WeatherTracker,2013-09-12 08:50:00,
2013-09-12 03:55:00,62.3,59.0,30.00,NNW,328,0.0,0.0,89,0.00,,,0.00,WeatherTracker,2013-09-12 08:55:00,
2013-09-12 04:00:00,62.2,58.9,30.00,NNW,328,0.0,0.0,89,0.00,,,0.00,WeatherTracker,2013-09-12 09:00:00,
2013-09-12 04:10:00,62.0,59.0,30.00,NNW,328,0.0,0.0,90,0.00,,,0.00,WeatherTracker,2013-09-12 09:10:00,
2013-09-12 04:20:00,61.8,58.8,30.00,NNW,328,0.0,0.0,90,0.00,,,0.00,WeatherTracker,2013-09-12 09:20:00,
2013-09-12 04:25:00,61.8,58.8,30.00,NNW,328,0.0,0.0,90,0.00,,,0.00,WeatherTracker,2013-09-12 09:25:00,
2013-09-12 04:30:00,61.7,58.4,30.00,NNW,328,0.0,0.0,89,0.00,,,0.00,WeatherTracker,2013-09-12 09:30:00,
2013-09-12 04:35:00,61.6,58.6,30.00,NNW,328,0.0,0.0,90,0.00,,,0.00,WeatherTracker,2013-09-12 09:35:00,
2013-09-12 04:45:00,61.5,58.5,30.00,NNW,328,0.0,0.0,90,0.00,,,0.00,WeatherTracker,2013-09-12 09:45:00,
2013-09-12 04:50:00,61.4,58.4,30.00,NNW,328,0.0,0.0,90,0.00,,,0.00,WeatherTracker,2013-09-12 09:50:00,
2013-09-12 05:00:00,61.3,58.3,30.00,NNW,328,1.0,1.0,90,0.00,,,0.00,WeatherTracker,2013-09-12 10:00:00,
2013-09-12 05:05:00,61.2,58.2,30.00,NNW,328,0.0,1.0,90,0.00,,,0.00,WeatherTracker,2013-09-12 10:05:00,
2013-09-12 05:10:00,61.1,58.1,30.00,NNW,328,0.0,1.0,90,0.00,,,0.00,WeatherTracker,2013-09-12 10:10:00,
2013-09-12 05:20:00,61.1,58.1,30.00,NNW,328,0.0,1.0,90,0.00,,,0.00,WeatherTracker,2013-09-12 10:20:00,
2013-09-12 05:25:00,61.0,58.0,30.00,NNW,328,0.0,1.0,90,0.00,,,0.00,WeatherTracker,2013-09-12 10:25:00,
2013-09-12 05:30:00,60.9,57.9,30.00,NNW,328,0.0,1.0,90,0.00,,,0.00,WeatherTracker,2013-09-12 10:30:00,
2013-09-12 05:40:00,60.9,58.3,30.00,WNW,299,0.0,4.0,91,0.00,,,0.00,WeatherTracker,2013-09-12 10:40:00,
2013-09-12 05:45:00,60.8,58.2,30.00,WNW,298,0.0,2.0,91,0.00,,,0.00,WeatherTracker,2013-09-12 10:45:00,
2013-09-12 05:55:00,60.7,58.1,30.00,WNW,298,1.0,2.0,91,0.00,,,0.00,WeatherTracker,2013-09-12 10:55:00,
2013-09-12 06:00:00,60.7,58.1,30.00,WNW,298,0.0,2.0,91,0.00,,,0.00,WeatherTracker,2013-09-12 11:00:00,
2013-09-12 06:05:00,60.6,58.0,30.00,West,269,0.0,3.0,91,0.00,,,0.00,WeatherTracker,2013-09-12 11:05:00,
2013-09-12 06:15:00,60.5,57.9,30.00,SW,227,2.0,4.0,91,0.00,,,0.00,WeatherTracker,2013-09-12 11:15:00,
2013-09-12 06:25:00,60.4,57.8,30.00,SW,231,0.0,2.0,91,0.00,,,0.00,WeatherTracker,2013-09-12 11:25:00,
2013-09-12 06:30:00,60.3,57.7,30.00,SW,232,0.0,3.0,91,0.00,,,0.00,WeatherTracker,2013-09-12 11:30:00,
2013-09-12 06:35:00,60.3,57.7,30.01,WNW,290,4.0,4.0,91,0.00,,,0.00,WeatherTracker,2013-09-12 11:35:00,
2013-09-12 06:45:00,60.2,57.6,30.01,WNW,298,3.0,7.0,91,0.00,,,0.00,WeatherTracker,2013-09-12 11:45:00,
2013-09-12 06:55:00,60.3,57.4,30.01,North,351,5.0,7.0,90,0.00,,,0.00,WeatherTracker,2013-09-12 11:55:00,
2013-09-12 07:00:00,60.4,57.5,30.01,NW,309,2.0,7.0,90,0.00,,,0.00,WeatherTracker,2013-09-12 12:00:00,
2013-09-12 07:10:00,60.9,57.6,30.02,WNW,298,2.0,8.0,89,0.00,,,0.00,WeatherTracker,2013-09-12 12:10:00,
2013-09-12 07:15:00,61.1,57.8,30.02,NW,317,3.0,8.0,89,0.00,,,0.00,WeatherTracker,2013-09-12 12:15:00,
2013-09-12 07:25:00,61.4,57.5,30.02,NW,319,1.0,10.0,87,0.00,,,0.00,WeatherTracker,2013-09-12 12:25:00,
2013-09-12 07:35:00,61.5,57.6,30.02,WNW,296,6.0,10.0,87,0.00,,,0.00,WeatherTracker,2013-09-12 12:35:00,
2013-09-12 07:40:00,61.6,57.4,30.02,WNW,302,2.0,10.0,86,0.00,,,0.00,WeatherTracker,2013-09-12 12:40:00,
2013-09-12 07:50:00,61.6,57.4,30.02,WNW,300,1.0,9.0,86,0.00,,,0.00,WeatherTracker,2013-09-12 12:50:00,
2013-09-12 08:00:00,61.6,57.4,30.02,NW,325,2.0,8.0,86,0.00,,,0.00,WeatherTracker,2013-09-12 13:00:00,
2013-09-12 08:05:00,61.7,57.5,30.02,NW,304,1.0,9.0,86,0.00,,,0.00,WeatherTracker,2013-09-12 13:05:00,
2013-09-12 08:15:00,61.7,57.5,30.02,WNW,299,8.0,9.0,86,0.00,,,0.00,WeatherTracker,2013-09-12 13:15:00,
2013-09-12 08:20:00,61.8,57.2,30.02,SW,227,2.0,11.0,85,0.00,,,0.00,WeatherTracker,2013-09-12 13:20:00,
2013-09-12 08:25:00,61.9,57.0,30.02,North,350,4.0,11.0,84,0.00,,,0.00,WeatherTracker,2013-09-12 13:25:00,
2013-09-12 08:35:00,62.0,57.1,30.02,North,350,2.0,7.0,84,0.00,,,0.00,WeatherTracker,2013-09-12 13:35:00,
2013-09-12 08:40:00,62.0,56.8,30.02,NW,317,6.0,11.0,83,0.00,,,0.00,WeatherTracker,2013-09-12 13:40:00,
2013-09-12 08:45:00,62.1,56.9,30.03,NW,326,5.0,13.0,83,0.00,,,0.00,WeatherTracker,2013-09-12 13:45:00,
2013-09-12 08:50:00,62.1,56.5,30.02,WNW,301,2.0,13.0,82,0.00,,,0.00,WeatherTracker,2013-09-12 13:50:00,
2013-09-12 08:55:00,62.3,56.7,30.02,WNW,283,4.0,8.0,82,0.00,,,0.00,WeatherTracker,2013-09-12 13:55:00,
2013-09-12 09:05:00,62.6,56.7,30.03,WSW,246,3.0,13.0,81,0.00,,,0.00,WeatherTracker,2013-09-12 14:05:00,
2013-09-12 09:10:00,62.7,56.4,30.03,NNW,331,3.0,13.0,80,0.00,,,0.00,WeatherTracker,2013-09-12 14:10:00,
2013-09-12 09:20:00,63.6,57.3,30.04,NNW,327,4.0,10.0,80,0.00,,,0.00,WeatherTracker,2013-09-12 14:20:00,
2013-09-12 09:25:00,64.2,57.5,30.04,West,269,4.0,10.0,79,0.00,,,0.00,WeatherTracker,2013-09-12 14:25:00,
2013-09-12 09:35:00,64.8,58.1,30.04,North,360,3.0,11.0,79,0.00,,,0.00,WeatherTracker,2013-09-12 14:35:00,
2013-09-12 09:40:00,65.1,57.7,30.04,NW,310,7.0,10.0,77,0.00,,,0.00,WeatherTracker,2013-09-12 14:40:00,
2013-09-12 09:45:00,65.2,57.4,30.04,NW,304,3.0,13.0,76,0.00,,,0.00,WeatherTracker,2013-09-12 14:45:00,
2013-09-12 09:55:00,65.2,57.4,30.04,North,360,9.0,14.0,76,0.00,,,0.00,WeatherTracker,2013-09-12 14:55:00,
2013-09-12 10:00:00,65.5,57.7,30.04,NW,325,5.0,11.0,76,0.00,,,0.00,WeatherTracker,2013-09-12 15:00:00,
2013-09-12 10:10:00,66.1,57.6,30.04,NNW,344,6.0,12.0,74,0.00,,,0.00,WeatherTracker,2013-09-12 15:10:00,
2013-09-12 10:15:00,66.1,57.2,30.04,NW,305,3.0,12.0,73,0.00,,,0.00,WeatherTracker,2013-09-12 15:15:00,
2013-09-12 10:25:00,67.0,58.1,30.04,NNW,341,1.0,10.0,73,0.00,,,0.00,WeatherTracker,2013-09-12 15:25:00,
2013-09-12 10:30:00,68.0,59.0,30.04,NW,311,13.0,13.0,73,0.00,,,0.00,WeatherTracker,2013-09-12 15:30:00,
2013-09-12 10:35:00,67.9,58.1,30.04,NW,306,3.0,13.0,71,0.00,,,0.00,WeatherTracker,2013-09-12 15:35:00,
2013-09-12 10:40:00,68.1,58.3,30.04,NNW,344,2.0,13.0,71,0.00,,,0.00,WeatherTracker,2013-09-12 15:40:00,
2013-09-12 10:50:00,69.1,60.1,30.05,NNW,338,4.0,13.0,73,0.00,,,0.00,WeatherTracker,2013-09-12 15:50:00,
2013-09-12 11:00:00,69.4,58.0,30.05,NW,309,6.0,10.0,67,0.00,,,0.00,WeatherTracker,2013-09-12 16:00:00,
2013-09-12 11:05:00,69.8,58.8,30.05,NW,304,10.0,12.0,68,0.00,,,0.00,WeatherTracker,2013-09-12 16:05:00,
2013-09-12 11:15:00,69.9,57.6,30.06,West,261,5.0,14.0,65,0.00,,,0.00,WeatherTracker,2013-09-12 16:15:00,
2013-09-12 11:20:00,70.7,59.6,30.05,WNW,287,3.0,14.0,68,0.00,,,0.00,WeatherTracker,2013-09-12 16:20:00,
2013-09-12 11:25:00,71.5,58.2,30.06,NNW,338,5.0,10.0,63,0.00,,,0.00,WeatherTracker,2013-09-12 16:25:00,
2013-09-12 11:30:00,71.0,59.1,30.06,NW,323,3.0,13.0,66,0.00,,,0.00,WeatherTracker,2013-09-12 16:30:00,
2013-09-12 11:35:00,71.1,58.7,30.07,NW,318,4.0,13.0,65,0.00,,,0.00,WeatherTracker,2013-09-12 16:35:00,
2013-09-12 11:45:00,70.8,58.4,30.07,NNW,330,8.0,14.0,65,0.00,,,0.00,WeatherTracker,2013-09-12 16:45:00,
2013-09-12 11:55:00,72.4,59.5,30.07,WNW,286,2.0,15.0,64,0.00,,,0.00,WeatherTracker,2013-09-12 16:55:00,
2013-09-12 12:00:00,71.9,57.7,30.07,WSW,242,4.0,12.0,61,0.00,,,0.00,WeatherTracker,2013-09-12 17:00:00,
2013-09-12 12:10:00,72.4,59.5,30.07,WNW,286,2.0,9.0,64,0.00,,,0.00,WeatherTracker,2013-09-12 17:10:00,
2013-09-12 12:20:00,71.5,57.8,30.06,NNW,327,1.0,12.0,62,0.00,,,0.00,WeatherTracker,2013-09-12 17:20:00,
2013-09-12 12:25:00,72.5,57.3,30.05,NNE,28,2.0,14.0,59,0.00,,,0.00,WeatherTracker,2013-09-12 17:25:00,
2013-09-12 12:30:00,72.7,57.1,30.05,WSW,241,5.0,14.0,58,0.00,,,0.00,WeatherTracker,2013-09-12 17:30:00,
2013-09-12 12:35:00,73.3,58.1,30.05,NNW,347,1.0,12.0,59,0.00,,,0.00,WeatherTracker,2013-09-12 17:35:00,
2013-09-12 12:45:00,73.1,58.8,30.06,NW,326,3.0,13.0,61,0.00,,,0.00,WeatherTracker,2013-09-12 17:45:00,
2013-09-12 12:50:00,72.7,58.0,30.06,NNW,345,1.0,13.0,60,0.00,,,0.00,WeatherTracker,2013-09-12 17:50:00,
2013-09-12 12:55:00,73.9,57.2,30.06,NW,325,14.0,15.0,56,0.00,,,0.00,WeatherTracker,2013-09-12 17:55:00,
2013-09-12 13:00:00,73.3,58.1,30.05,NE,45,1.0,15.0,59,0.00,,,0.00,WeatherTracker,2013-09-12 18:00:00,
2013-09-12 13:10:00,72.8,58.6,30.05,WNW,303,2.0,9.0,61,0.00,,,0.00,WeatherTracker,2013-09-12 18:10:00,
2013-09-12 13:15:00,73.8,57.1,30.06,WNW,297,1.0,9.0,56,0.00,,,0.00,WeatherTracker,2013-09-12 18:15:00,
2013-09-12 13:25:00,74.3,56.0,30.06,NE,34,2.0,12.0,53,0.00,,,0.00,WeatherTracker,2013-09-12 18:25:00,
2013-09-12 13:30:00,74.4,57.2,30.06,NNE,30,6.0,11.0,55,0.00,,,0.00,WeatherTracker,2013-09-12 18:30:00,
2013-09-12 13:35:00,73.1,55.5,30.07,NNE,17,5.0,11.0,54,0.00,,,0.00,WeatherTracker,2013-09-12 18:35:00,
2013-09-12 13:40:00,73.0,56.9,30.06,WNW,299,1.0,13.0,57,0.00,,,0.00,WeatherTracker,2013-09-12 18:40:00,
2013-09-12 13:45:00,74.4,55.6,30.06,NW,315,10.0,13.0,52,0.00,,,0.00,WeatherTracker,2013-09-12 18:45:00,
2013-09-12 13:55:00,74.1,55.3,30.06,NNW,340,2.0,11.0,52,0.00,,,0.00,WeatherTracker,2013-09-12 18:55:00,
2013-09-12 14:00:00,72.9,55.8,30.06,NW,304,1.0,11.0,55,0.00,,,0.00,WeatherTracker,2013-09-12 19:00:00,
2013-09-12 14:05:00,73.2,56.0,30.06,WNW,302,3.0,14.0,55,0.00,,,0.00,WeatherTracker,2013-09-12 19:05:00,
2013-09-12 14:10:00,71.9,54.3,30.06,NW,325,5.0,14.0,54,0.00,,,0.00,WeatherTracker,2013-09-12 19:10:00,
2013-09-12 14:20:00,73.7,56.5,30.05,North,11,2.0,10.0,55,0.00,,,0.00,WeatherTracker,2013-09-12 19:20:00,
2013-09-12 14:25:00,73.1,55.5,30.06,NW,321,4.0,10.0,54,0.00,,,0.00,WeatherTracker,2013-09-12 19:25:00,
2013-09-12 14:30:00,73.1,55.5,30.05,North,355,4.0,8.0,54,0.00,,,0.00,WeatherTracker,2013-09-12 19:30:00,
2013-09-12 14:35:00,71.9,53.3,30.05,North,350,6.0,10.0,52,0.00,,,0.00,WeatherTracker,2013-09-12 19:35:00,
2013-09-12 14:40:00,71.8,56.2,30.05,NW,323,2.0,10.0,58,0.00,,,0.00,WeatherTracker,2013-09-12 19:40:00,
2013-09-12 14:50:00,71.9,56.3,30.05,WNW,294,0.0,10.0,58,0.00,,,0.00,WeatherTracker,2013-09-12 19:50:00,
2013-09-12 14:55:00,73.2,56.0,30.05,NW,326,2.0,6.0,55,0.00,,,0.00,WeatherTracker,2013-09-12 19:55:00,
2013-09-12 15:00:00,73.1,55.5,30.05,NW,323,9.0,9.0,54,0.00,,,0.00,WeatherTracker,2013-09-12 20:00:00,
2013-09-12 15:10:00,72.4,54.8,30.05,NW,319,3.0,11.0,54,0.00,,,0.00,WeatherTracker,2013-09-12 20:10:00,
2013-09-12 15:20:00,71.7,55.2,30.05,NW,311,7.0,11.0,56,0.00,,,0.00,WeatherTracker,2013-09-12 20:20:00,
2013-09-12 15:25:00,72.3,55.2,30.06,NW,304,1.0,13.0,55,0.00,,,0.00,WeatherTracker,2013-09-12 20:25:00,
2013-09-12 15:35:00,71.6,52.5,30.06,NW,319,8.0,17.0,51,0.00,,,0.00,WeatherTracker,2013-09-12 20:35:00,
2013-09-12 15:40:00,71.5,53.5,30.06,NW,315,1.0,17.0,53,0.00,,,0.00,WeatherTracker,2013-09-12 20:40:00,
2013-09-12 15:45:00,72.1,55.0,30.06,ENE,57,7.0,14.0,55,0.00,,,0.00,WeatherTracker,2013-09-12 20:45:00,
2013-09-12 15:55:00,71.5,52.4,30.06,WNW,288,1.0,13.0,51,0.00,,,0.00,WeatherTracker,2013-09-12 20:55:00,
2013-09-12 16:05:00,71.5,52.4,30.06,West,279,6.0,14.0,51,0.00,,,0.00,WeatherTracker,2013-09-12 21:05:00,
2013-09-12 16:10:00,71.4,52.3,30.06,NNW,344,4.0,15.0,51,0.00,,,0.00,WeatherTracker,2013-09-12 21:10:00,
2013-09-12 16:20:00,71.3,52.8,30.06,WSW,243,7.0,14.0,52,0.00,,,0.00,WeatherTracker,2013-09-12 21:20:00,
2013-09-12 16:25:00,71.4,52.8,30.06,WNW,289,5.0,14.0,52,0.00,,,0.00,WeatherTracker,2013-09-12 21:25:00,
2013-09-12 16:35:00,71.0,53.0,30.06,North,5,6.0,14.0,53,0.00,,,0.00,WeatherTracker,2013-09-12 21:35:00,
2013-09-12 16:40:00,70.4,51.9,30.06,NW,322,4.0,15.0,52,0.00,,,0.00,WeatherTracker,2013-09-12 21:40:00,
2013-09-12 16:45:00,70.2,52.3,30.07,NW,311,10.0,15.0,53,0.00,,,0.00,WeatherTracker,2013-09-12 21:45:00,
2013-09-12 16:50:00,70.1,52.2,30.07,NNW,338,3.0,13.0,53,0.00,,,0.00,WeatherTracker,2013-09-12 21:50:00,
2013-09-12 17:00:00,70.0,51.6,30.07,NNW,329,5.0,13.0,52,0.00,,,0.00,WeatherTracker,2013-09-12 22:00:00,
2013-09-12 17:05:00,69.7,51.3,30.07,NNW,339,3.0,13.0,52,0.00,,,0.00,WeatherTracker,2013-09-12 22:05:00,
2013-09-12 17:10:00,69.5,51.6,30.07,North,360,4.0,12.0,53,0.00,,,0.00,WeatherTracker,2013-09-12 22:10:00,
2013-09-12 17:15:00,69.5,51.6,30.07,NE,44,4.0,10.0,53,0.00,,,0.00,WeatherTracker,2013-09-12 22:15:00,
2013-09-12 17:25:00,69.4,52.0,30.07,NNW,345,6.0,12.0,54,0.00,,,0.00,WeatherTracker,2013-09-12 22:25:00,
2013-09-12 17:30:00,69.5,52.6,30.07,NW,316,2.0,12.0,55,0.00,,,0.00,WeatherTracker,2013-09-12 22:30:00,
2013-09-12 17:35:00,69.5,52.1,30.07,NW,317,0.0,10.0,54,0.00,,,0.00,WeatherTracker,2013-09-12 22:35:00,
2013-09-12 17:40:00,69.3,51.9,30.07,North,355,4.0,13.0,54,0.00,,,0.00,WeatherTracker,2013-09-12 22:40:00,
2013-09-12 17:45:00,69.1,52.2,30.07,WNW,298,3.0,13.0,55,0.00,,,0.00,WeatherTracker,2013-09-12 22:45:00,
2013-09-12 17:55:00,68.7,51.9,30.07,NW,315,3.0,12.0,55,0.00,,,0.00,WeatherTracker,2013-09-12 22:55:00,
2013-09-12 18:00:00,68.5,51.7,30.07,NNW,329,4.0,13.0,55,0.00,,,0.00,WeatherTracker,2013-09-12 23:00:00,
2013-09-12 18:05:00,68.3,51.5,30.08,NNW,348,4.0,13.0,55,0.00,,,0.00,WeatherTracker,2013-09-12 23:05:00,
2013-09-12 18:15:00,68.2,51.4,30.08,NNW,337,0.0,12.0,55,0.00,,,0.00,WeatherTracker,2013-09-12 23:15:00,
2013-09-12 18:20:00,68.1,51.8,30.08,NW,321,5.0,10.0,56,0.00,,,0.00,WeatherTracker,2013-09-12 23:20:00,
2013-09-12 18:25:00,68.0,51.7,30.08,NNW,327,3.0,10.0,56,0.00,,,0.00,WeatherTracker,2013-09-12 23:25:00,
2013-09-12 18:35:00,67.7,51.4,30.08,NNW,334,5.0,8.0,56,0.00,,,0.00,WeatherTracker,2013-09-12 23:35:00,
2013-09-12 18:40:00,67.6,51.3,30.08,NW,313,1.0,9.0,56,0.00,,,0.00,WeatherTracker,2013-09-12 23:40:00,
2013-09-12 18:45:00,67.4,51.1,30.08,NW,311,3.0,9.0,56,0.00,,,0.00,WeatherTracker,2013-09-12 23:45:00,
2013-09-12 18:55:00,67.2,51.0,30.08,NNW,331,0.0,11.0,56,0.00,,,0.00,WeatherTracker,2013-09-12 23:55:00,
2013-09-12 19:00:00,67.1,51.3,30.08,WNW,298,1.0,11.0,57,0.00,,,0.00,WeatherTracker,2013-09-13 00:00:00,
2013-09-12 19:05:00,66.9,50.7,30.09,WNW,302,2.0,6.0,56,0.00,,,0.00,WeatherTracker,2013-09-13 00:05:00,
2013-09-12 19:15:00,66.6,50.9,30.09,WNW,295,3.0,8.0,57,0.00,,,0.00,WeatherTracker,2013-09-13 00:15:00,
2013-09-12 19:20:00,66.3,50.6,30.09,NNW,333,2.0,9.0,57,0.00,,,0.00,WeatherTracker,2013-09-13 00:20:00,
2013-09-12 19:25:00,66.1,50.4,30.09,NW,319,2.0,9.0,57,0.00,,,0.00,WeatherTracker,2013-09-13 00:25:00,
2013-09-12 19:35:00,65.7,51.0,30.09,NW,319,1.0,7.0,59,0.00,,,0.00,WeatherTracker,2013-09-13 00:35:00,
2013-09-12 19:45:00,65.3,50.6,30.10,NW,326,2.0,7.0,59,0.00,,,0.00,WeatherTracker,2013-09-13 00:45:00,
2013-09-12 19:55:00,65.0,50.3,30.10,NW,319,0.0,7.0,59,0.00,,,0.00,WeatherTracker,2013-09-13 00:55:00,
2013-09-12 20:00:00,64.9,50.2,30.11,West,278,4.0,7.0,59,0.00,,,0.00,WeatherTracker,2013-09-13 01:00:00,
2013-09-12 20:10:00,64.7,50.0,30.10,NW,315,1.0,7.0,59,0.00,,,0.00,WeatherTracker,2013-09-13 01:10:00,
2013-09-12 20:15:00,64.5,50.3,30.11,NW,326,5.0,7.0,60,0.00,,,0.00,WeatherTracker,2013-09-13 01:15:00,
2013-09-12 20:20:00,64.5,50.3,30.11,WNW,284,3.0,7.0,60,0.00,,,0.00,WeatherTracker,2013-09-13 01:20:00,
2013-09-12 20:25:00,64.3,50.6,30.11,NW,311,0.0,5.0,61,0.00,,,0.00,WeatherTracker,2013-09-13 01:25:00,
2013-09-12 20:30:00,64.2,50.5,30.11,NW,317,3.0,6.0,61,0.00,,,0.00,WeatherTracker,2013-09-13 01:30:00,
2013-09-12 20:35:00,64.0,50.3,30.11,NW,323,5.0,6.0,61,0.00,,,0.00,WeatherTracker,2013-09-13 01:35:00,
2013-09-12 20:45:00,63.6,49.9,30.11,NW,316,1.0,8.0,61,0.00,,,0.00,WeatherTracker,2013-09-13 01:45:00,
2013-09-12 20:50:00,63.5,50.2,30.11,NW,325,1.0,6.0,62,0.00,,,0.00,WeatherTracker,2013-09-13 01:50:00,
2013-09-12 20:55:00,63.4,50.6,30.11,North,9,4.0,5.0,63,0.00,,,0.00,WeatherTracker,2013-09-13 01:55:00,
2013-09-12 21:05:00,63.1,50.7,30.12,NNW,327,2.0,9.0,64,0.00,,,0.00,WeatherTracker,2013-09-13 02:05:00,
2013-09-12 21:10:00,63.0,50.6,30.12,WNW,296,7.0,7.0,64,0.00,,,0.00,WeatherTracker,2013-09-13 02:10:00,
2013-09-12 21:20:00,62.9,50.9,30.12,North,355,1.0,8.0,65,0.00,,,0.00,WeatherTracker,2013-09-13 02:20:00,
2013-09-12 21:30:00,62.7,51.2,30.12,NNE,23,6.0,6.0,66,0.00,,,0.00,WeatherTracker,2013-09-13 02:30:00,
2013-09-12 21:35:00,62.6,50.7,30.12,NE,35,1.0,6.0,65,0.00,,,0.00,WeatherTracker,2013-09-13 02:35:00,
2013-09-12 21:40:00,62.5,51.0,30.12,NW,305,0.0,6.0,66,0.00,,,0.00,WeatherTracker,2013-09-13 02:40:00,
2013-09-12 21:50:00,62.5,51.0,30.13,NW,325,0.0,8.0,66,0.00,,,0.00,WeatherTracker,2013-09-13 02:50:00,
2013-09-12 21:55:00,62.4,51.3,30.13,North,350,0.0,8.0,67,0.00,,,0.00,WeatherTracker,2013-09-13 02:55:00,
2013-09-12 22:05:00,62.2,50.7,30.13,North,349,3.0,5.0,66,0.00,,,0.00,WeatherTracker,2013-09-13 03:05:00,
2013-09-12 22:10:00,62.2,51.1,30.13,North,355,2.0,6.0,67,0.00,,,0.00,WeatherTracker,2013-09-13 03:10:00,
2013-09-12 22:20:00,62.0,50.9,30.14,NNE,22,3.0,7.0,67,0.00,,,0.00,WeatherTracker,2013-09-13 03:20:00,
2013-09-12 22:25:00,61.8,50.7,30.14,SSE,151,0.0,7.0,67,0.00,,,0.00,WeatherTracker,2013-09-13 03:25:00,
2013-09-12 22:35:00,61.6,50.5,30.14,NNW,339,0.0,7.0,67,0.00,,,0.00,WeatherTracker,2013-09-13 03:35:00,
2013-09-12 22:40:00,61.4,50.3,30.14,East,82,0.0,7.0,67,0.00,,,0.00,WeatherTracker,2013-09-13 03:40:00,
2013-09-12 22:45:00,61.3,50.2,30.15,NE,46,3.0,8.0,67,0.00,,,0.00,WeatherTracker,2013-09-13 03:45:00,
2013-09-12 22:55:00,61.0,50.0,30.15,NNE,12,0.0,10.0,67,0.00,,,0.00,WeatherTracker,2013-09-13 03:55:00,
2013-09-12 23:00:00,60.9,49.9,30.15,NNW,327,1.0,10.0,67,0.00,,,0.00,WeatherTracker,2013-09-13 04:00:00,
2013-09-12 23:05:00,60.7,50.1,30.15,North,5,4.0,8.0,68,0.00,,,0.00,WeatherTracker,2013-09-13 04:05:00,
2013-09-12 23:10:00,60.6,50.0,30.16,ENE,77,0.0,8.0,68,0.00,,,0.00,WeatherTracker,2013-09-13 04:10:00,
2013-09-12 23:20:00,60.2,50.0,30.16,NNW,336,3.0,5.0,69,0.00,,,0.00,WeatherTracker,2013-09-13 04:20:00,
2013-09-12 23:30:00,59.8,49.6,30.16,WNW,291,1.0,6.0,69,0.00,,,0.00,WeatherTracker,2013-09-13 04:30:00,
2013-09-12 23:40:00,59.4,49.2,30.17,NNE,13,6.0,8.0,69,0.00,,,0.00,WeatherTracker,2013-09-13 04:40:00,
2013-09-12 23:45:00,59.2,49.0,30.17,NW,308,0.0,8.0,69,0.00,,,0.00,WeatherTracker,2013-09-13 04:45:00,
2013-09-12 23:50:00,59.0,48.8,30.17,NNW,336,2.0,12.0,69,0.00,,,0.00,WeatherTracker,2013-09-13 04:50:00,
2013-09-12 23:55:00,58.8,49.0,30.17,East,83,1.0,12.0,70,0.00,,,0.00,WeatherTracker,2013-09-13 04:55:00,